Date String (YYYY-MM-DD hh:mm:ss) UTC,Instrument flags,Ambient pressure (hPa),Sample flow (lpm),Bypass flow (lpm),Sample temperature (°C),Ambient temperature (°C),ASC tube jacket temperature (°C),LED temperature (°C),Box temperature (°C),Sample RH (%),Span deviation,Mass concentration (μg/m³),Mass concentration (μg/m³),Mass concentration (μg/m³)
DateTimeUTC,F1_M11,P_M11,Q1_M11,Q2_M11,T1_M11,T2_M11,T3_M11,T4_M11,T5_M11,U1_M11,ZSPAN_M11,X0_M11,X2_M11,X1_M11
2022-01-15 08:00:00,,0835.9,5.00,0.00,21.4,21.8,00.0,30.4,23.1,11.0,0000.0,0005.40,0003.14,0002.86
2022-01-15 08:01:00,,0835.9,5.01,0.00,21.3,21.5,00.0,30.4,22.9,11.0,0000.0,0005.31,0003.12,0002.84
2022-01-15 08:02:00,,0836.0,4.99,0.00,21.3,21.2,00.0,30.3,22.8,11.0,0000.0,0005.31,0003.11,0002.82
2022-01-15 08:03:00,,0836.0,5.01,0.00,21.2,21.0,00.0,30.3,22.7,11.0,0000.0,0005.41,0003.10,0002.81
2022-01-15 08:04:00,,0836.0,5.00,0.00,21.1,20.8,00.0,30.3,22.6,11.1,0000.0,0005.88,0003.06,0002.79
2022-01-15 08:05:00,,0836.0,5.01,0.00,21.1,20.6,00.0,30.3,22.5,11.1,0000.0,0005.83,0003.01,0002.76
2022-01-15 08:06:00,,0836.0,5.01,0.00,21.0,20.6,00.0,30.3,22.5,11.1,0000.0,0005.82,0003.00,0002.75
2022-01-15 08:07:00,,0836.0,4.99,0.00,21.1,21.3,00.0,30.3,22.8,11.1,0000.0,0005.75,0002.98,0002.74
2022-01-15 08:08:00,,0836.0,5.01,0.00,21.3,22.2,00.0,30.3,23.2,10.9,0000.0,0005.28,0002.98,0002.74
2022-01-15 08:09:00,,0836.0,4.99,0.00,21.5,22.5,00.0,30.4,23.4,10.8,0000.0,0004.47,0002.98,0002.72
2022-01-15 08:10:00,,0835.9,5.00,0.00,21.5,22.2,00.0,30.4,23.2,10.8,0000.0,0004.28,0002.97,0002.71
2022-01-15 08:11:00,,0835.9,4.99,0.00,21.4,21.7,00.0,30.4,23.0,10.9,0000.0,0004.37,0002.96,0002.70
2022-01-15 08:12:00,,0835.9,5.00,0.00,21.3,21.3,00.0,30.4,22.8,10.9,0000.0,0004.84,0002.97,0002.71
2022-01-15 08:13:00,,0835.9,5.00,0.00,21.2,21.0,00.0,30.3,22.6,11.0,0000.0,0004.88,0003.01,0002.74
2022-01-15 08:14:00,,0835.9,5.01,0.00,21.1,20.7,00.0,30.3,22.5,11.1,0000.0,0004.95,0003.02,0002.75
2022-01-15 08:15:00,,0835.9,5.00,0.00,21.0,20.5,00.0,30.3,22.4,11.1,0000.0,0004.59,0003.01,0002.75
2022-01-15 08:16:00,,0835.9,5.00,0.00,21.0,20.3,00.0,30.2,22.3,11.1,0000.0,0004.51,0002.98,0002.74
2022-01-15 08:17:00,,0835.9,5.00,0.00,20.9,20.6,00.0,30.2,22.4,11.1,0000.0,0004.57,0002.99,0002.75
2022-01-15 08:18:00,,0835.9,5.00,0.00,21.1,21.5,00.0,30.2,22.8,11.1,0000.0,0004.64,0003.02,0002.74
2022-01-15 08:19:00,,0836.0,5.01,0.00,21.3,22.4,00.0,30.3,23.1,10.9,0000.0,0004.71,0003.05,0002.76
2022-01-15 08:20:00,,0835.9,4.99,0.00,21.4,22.4,00.0,30.3,23.2,10.9,0000.0,0004.70,0003.06,0002.78
2022-01-15 08:21:00,,0835.9,5.00,0.00,21.4,22.0,00.0,30.3,23.1,10.8,0000.0,0004.74,0003.09,0002.78
2022-01-15 08:22:00,,0835.8,5.01,0.00,21.3,21.6,00.0,30.3,23.0,10.8,0000.0,0004.74,0003.09,0002.79
2022-01-15 08:23:00,,0835.8,4.99,0.00,21.3,21.3,00.0,30.3,22.8,10.8,0000.0,0004.18,0003.08,0002.81
2022-01-15 08:24:00,,0835.9,5.00,0.00,21.2,21.1,00.0,30.3,22.7,10.9,0000.0,0004.09,0003.06,0002.80
2022-01-15 08:25:00,,0835.8,5.00,0.00,21.2,20.9,00.0,30.3,22.6,10.9,0000.0,0004.02,0003.04,0002.79
2022-01-15 08:26:00,,0835.9,5.01,0.00,21.1,20.7,00.0,30.3,22.6,10.9,0000.0,0003.71,0003.02,0002.78
2022-01-15 08:27:00,,0835.9,5.00,0.00,21.0,20.5,00.0,30.2,22.5,11.0,0000.0,0003.67,0003.05,0002.80
2022-01-15 08:28:00,,0835.9,5.00,0.00,21.0,20.6,00.0,30.2,22.5,11.0,0000.0,0003.61,0003.05,0002.80
2022-01-15 08:29:00,,0835.9,5.00,0.00,21.1,21.5,00.0,30.2,22.8,10.9,0000.0,0003.52,0003.01,0002.79
2022-01-15 08:30:00,,0835.9,5.00,0.00,21.3,22.4,00.0,30.3,23.2,10.8,0000.0,0003.37,0002.96,0002.79
2022-01-15 08:31:00,,0835.8,4.99,0.00,21.4,22.6,00.0,30.3,23.3,10.7,0000.0,0003.39,0002.95,0002.77
2022-01-15 08:32:00,,0835.8,5.00,0.00,21.5,22.2,00.0,30.3,23.2,10.7,0000.0,0003.38,0002.93,0002.76
2022-01-15 08:33:00,,0835.7,4.99,0.00,21.4,21.9,00.0,30.4,23.1,10.7,0000.0,0003.36,0002.92,0002.75
2022-01-15 08:34:00,,0835.7,5.01,0.00,21.4,21.6,00.0,30.4,23.0,10.7,0000.0,0003.38,0002.93,0002.73
2022-01-15 08:35:00,,0835.7,5.01,0.00,21.3,21.3,00.0,30.3,22.9,10.7,0000.0,0003.34,0002.90,0002.71
2022-01-15 08:36:00,,0835.8,4.98,0.00,21.3,21.1,00.0,30.3,22.8,10.8,0000.0,0003.35,0002.89,0002.69
2022-01-15 08:37:00,,0835.8,5.01,0.00,21.2,20.9,00.0,30.3,22.8,10.8,0000.0,0003.37,0002.90,0002.69
2022-01-15 08:38:00,,0835.8,5.00,0.00,21.2,20.7,00.0,30.3,22.7,10.8,0000.0,0003.31,0002.87,0002.66
2022-01-15 08:39:00,,0835.8,5.00,0.00,21.1,20.5,00.0,30.3,22.6,10.8,0000.0,0003.29,0002.84,0002.65
2022-01-15 08:40:00,,0835.8,5.00,0.00,21.1,20.5,00.0,30.3,22.6,10.8,0000.0,0003.34,0002.85,0002.64
2022-01-15 08:41:00,,0835.9,4.99,0.00,21.2,21.2,00.0,30.3,22.9,10.8,0000.0,0003.37,0002.87,0002.63
2022-01-15 08:42:00,,0835.9,5.01,0.00,21.4,22.2,00.0,30.3,23.2,10.7,0000.0,0003.28,0002.84,0002.63
2022-01-15 08:43:00,,0835.9,4.98,0.00,21.5,22.7,00.0,30.4,23.5,10.6,0000.0,0003.26,0002.82,0002.62
2022-01-15 08:44:00,,0835.9,5.00,0.00,21.6,22.4,00.0,30.4,23.4,10.6,0000.0,0003.26,0002.81,0002.60
2022-01-15 08:45:00,,0835.9,4.99,0.00,21.6,22.1,00.0,30.4,23.3,10.6,0000.0,0003.21,0002.78,0002.59
2022-01-15 08:46:00,,0835.9,5.01,0.00,21.5,21.8,00.0,30.4,23.2,10.6,0000.0,0003.24,0002.78,0002.59
2022-01-15 08:47:00,,0835.9,4.98,0.00,21.5,21.5,00.0,30.4,23.1,10.6,0000.0,0003.23,0002.79,0002.59
2022-01-15 08:48:00,,0835.9,5.00,0.00,21.4,21.3,00.0,30.4,23.0,10.6,0000.0,0003.27,0002.79,0002.59
2022-01-15 08:49:00,,0835.8,5.00,0.00,21.4,21.1,00.0,30.4,23.0,10.6,0000.0,0003.33,0002.80,0002.60
2022-01-15 08:50:00,,0835.9,5.01,0.00,21.4,21.0,00.0,30.4,22.9,10.7,0000.0,0003.40,0002.81,0002.59
2022-01-15 08:51:00,,0835.9,5.00,0.00,21.3,20.9,00.0,30.4,22.9,10.7,0000.0,0003.41,0002.81,0002.61
2022-01-15 08:52:00,,0835.8,4.99,0.00,21.3,20.8,00.0,30.4,22.8,10.7,0000.0,0003.38,0002.79,0002.61
2022-01-15 08:53:00,,0835.9,4.99,0.00,21.3,20.7,00.0,30.4,22.8,10.7,0000.0,0003.38,0002.79,0002.61
2022-01-15 08:54:00,,0835.9,5.00,0.00,21.2,20.8,00.0,30.4,22.8,10.7,0000.0,0003.38,0002.80,0002.63
2022-01-15 08:55:00,,0835.9,4.99,0.00,21.3,21.5,00.0,30.4,23.1,10.7,0000.0,0003.86,0002.83,0002.62
2022-01-15 08:56:00,,0835.9,5.01,0.00,21.5,22.4,00.0,30.4,23.4,10.6,0000.0,0004.55,0002.85,0002.62
2022-01-15 08:57:00,,0836.0,5.01,0.00,21.7,22.8,00.0,30.5,23.6,10.5,0000.0,0004.69,0002.85,0002.60
2022-01-15 08:58:00,,0836.0,5.00,0.00,21.7,22.5,00.0,30.5,23.6,10.4,0000.0,0004.81,0002.84,0002.59
2022-01-15 08:59:00,,0836.0,5.00,0.00,21.7,22.1,00.0,30.5,23.5,10.4,0000.0,0004.84,0002.84,0002.58
